Ironwood, MI

1:35 AM CDT on April 30, 2017 (GMT -0500)
Gogebic-Iron County

Weather History for KIWD - May, 2014

Change the Weather History Date:

Wednesday, May 28, 2014

  Actual Average Record
Temperature  
Mean Temperature 54 °F -  
Max Temperature 69 °F 63 °F 91 °F (2006)
Min Temperature 39 °F 41 °F 30 °F (2004)
Degree Days  
Heating Degree Days 11    
Growing Degree Days 4 (Base 50)    
Moisture  
Dew Point 42 °F    
Average Humidity 62    
Maximum Humidity 87    
Minimum Humidity 40    
Precipitation  
Precipitation 0.00 in - - ()
Sea Level Pressure  
Sea Level Pressure 30.08 in    
Wind  
Wind Speed 3 mph (NNE)    
Max Wind Speed 12 mph    
Max Gust Speed 17 mph    
Visibility 10 miles    
Events      
Averages and records for this station are not official NWS values.
T = Trace of Precipitation, MM = Missing Value Source: NWS Daily Summary

Daily Weather History Graph

Daily Weather History Graph

Search for Another Location

Airport or City:

Trip Planner

Search our weather history database for the weather conditions in past years. The results will help you decide how hot, cold, wet, or windy it might be!

Date:

Astronomy

May. 28, 2014 Rise Set
Actual Time 5:13 AM CDT 8:42 PM CDT
Civil Twilight 4:36 AM CDT 9:19 PM CDT
Nautical Twilight 3:46 AM CDT 10:09 PM CDT
Astronomical Twilight 2:42 AM CDT 11:14 PM CDT
Moon 5:24 AM CDT (5/28) 8:37 PM CDT (5/28)
Length of Visible Light 16h 43m
Length of Day
15h 28m
Waning Crescent, 0% of the Moon is Illuminated
May 28
Waning Crescent
May 28
New
Jun 5
First Quarter
Jun 12
Full
Jun 19
Last Quarter

Hourly Weather History & Observations

Time (CDT) Temp. Windchill Dew Point Humidity Pressure Visibility Wind Dir Wind Speed Gust Speed Precip Events Conditions
12:15 AM 44.6 °F - 37.4 °F 76% 30.03 in 10.0 mi Calm Calm - N/A   Clear
12:35 AM 46.4 °F - 39.2 °F 76% 30.04 in 10.0 mi Calm Calm - N/A   Clear
12:55 AM 44.6 °F - 37.4 °F 76% 30.04 in 10.0 mi Calm Calm - N/A   Clear
1:15 AM 42.8 °F - 35.6 °F 76% 30.04 in 10.0 mi Calm Calm - N/A   Clear
1:55 AM 44.6 °F 42.2 °F 35.6 °F 71% 30.04 in 10.0 mi ENE 4.6 mph - N/A   Clear
2:15 AM 44.6 °F - 35.6 °F 71% 30.04 in 10.0 mi Calm Calm - N/A   Clear
2:35 AM 44.6 °F - 37.4 °F 76% 30.04 in 10.0 mi Calm Calm - N/A   Clear
2:55 AM 42.8 °F - 35.6 °F 76% 30.03 in 10.0 mi Calm Calm - N/A   Clear
3:15 AM 41.0 °F - 37.4 °F 87% 30.03 in 10.0 mi Calm Calm - N/A   Clear
3:35 AM 42.8 °F - 35.6 °F 76% 30.03 in 10.0 mi Calm Calm - N/A   Clear
3:55 AM 39.2 °F 35.9 °F 35.6 °F 87% 30.03 in 10.0 mi North 4.6 mph - N/A   Clear
4:15 AM 39.2 °F - 35.6 °F 87% 30.04 in 10.0 mi Calm Calm - N/A   Clear
4:35 AM 42.8 °F - 37.4 °F 81% 30.04 in 10.0 mi Calm Calm - N/A   Clear
4:55 AM 44.6 °F - 37.4 °F 76% 30.05 in 10.0 mi Calm Calm - N/A   Clear
5:15 AM 44.6 °F - 37.4 °F 76% 30.06 in 10.0 mi Calm Calm - N/A   Clear
5:35 AM 44.6 °F - 37.4 °F 76% 30.06 in 10.0 mi Calm Calm - N/A   Clear
5:55 AM 41.0 °F - 37.4 °F 87% 30.06 in 10.0 mi Calm Calm - N/A   Clear
6:15 AM 42.8 °F - 37.4 °F 81% 30.08 in 10.0 mi Calm Calm - N/A   Clear
6:35 AM 44.6 °F 43.1 °F 39.2 °F 81% 30.07 in 10.0 mi East 3.5 mph - N/A   Clear
6:55 AM 46.4 °F 45.2 °F 39.2 °F 76% 30.08 in 10.0 mi ENE 3.5 mph - N/A   Clear
7:15 AM 51.8 °F - 41.0 °F 67% 30.09 in 10.0 mi Calm Calm - N/A   Clear
7:35 AM 53.6 °F - 41.0 °F 62% 30.09 in 10.0 mi East 4.6 mph - N/A   Clear
8:15 AM 57.2 °F - 42.8 °F 59% 30.10 in 10.0 mi Calm Calm - N/A   Clear
8:55 AM 60.8 °F - 42.8 °F 52% 30.10 in 10.0 mi Calm Calm - N/A   Clear
9:15 AM 62.6 °F - 42.8 °F 48% 30.09 in 10.0 mi ESE 6.9 mph - N/A   Clear
9:35 AM 64.4 °F - 42.8 °F 45% 30.10 in 10.0 mi ESE 8.1 mph - N/A   Clear
9:55 AM 64.4 °F - 42.8 °F 45% 30.09 in 10.0 mi East 8.1 mph - N/A   Clear
10:15 AM 66.2 °F - 44.6 °F 46% 30.09 in 10.0 mi ENE 4.6 mph - N/A   Clear
10:35 AM 66.2 °F - 42.8 °F 43% 30.09 in 10.0 mi Calm Calm - N/A   Clear
10:55 AM 66.2 °F - 42.8 °F 43% 30.09 in 10.0 mi East 4.6 mph - N/A   Clear
11:15 AM 68.0 °F - 44.6 °F 43% 30.09 in 10.0 mi NNW 10.4 mph - N/A   Clear
11:55 AM 66.2 °F - 44.6 °F 46% 30.11 in 10.0 mi North 9.2 mph - N/A   Clear
12:15 PM 66.2 °F - 44.6 °F 46% 30.11 in 10.0 mi North 11.5 mph 17.3 mph N/A   Clear
12:35 PM 64.4 °F - 44.6 °F 49% 30.11 in 10.0 mi North 11.5 mph - N/A   Clear
1:15 PM 64.4 °F - 44.6 °F 49% 30.11 in 10.0 mi North 10.4 mph - N/A   Clear
1:55 PM 66.2 °F - 44.6 °F 46% 30.11 in 10.0 mi North 9.2 mph - N/A   Clear
2:15 PM 66.2 °F - 44.6 °F 46% 30.10 in 10.0 mi NE 8.1 mph - N/A   Clear
2:35 PM 66.2 °F - 44.6 °F 46% 30.10 in 10.0 mi North 10.4 mph - N/A   Clear
2:55 PM 68.0 °F - 44.6 °F 43% 30.10 in 10.0 mi North 6.9 mph - N/A   Clear
3:15 PM 69.8 °F - 44.6 °F 40% 30.10 in 10.0 mi North 10.4 mph - N/A   Clear
3:35 PM 68.0 °F - 44.6 °F 43% 30.10 in 10.0 mi North 9.2 mph - N/A   Clear
3:55 PM 68.0 °F - 44.6 °F 43% 30.10 in 10.0 mi North 8.1 mph - N/A   Clear
4:15 PM 68.0 °F - 44.6 °F 43% 30.08 in 10.0 mi NNE 5.8 mph - N/A   Clear
4:35 PM 69.8 °F - 44.6 °F 40% 30.08 in 10.0 mi NE 5.8 mph - N/A   Clear
5:15 PM 68.0 °F - 44.6 °F 43% 30.08 in 10.0 mi NNW 8.1 mph - N/A   Clear
5:35 PM 68.0 °F - 44.6 °F 43% 30.09 in 10.0 mi North 10.4 mph - N/A   Clear
6:15 PM 66.2 °F - 44.6 °F 46% 30.08 in 10.0 mi NNW 6.9 mph - N/A   Clear
6:35 PM 66.2 °F - 42.8 °F 43% 30.08 in 10.0 mi NNW 10.4 mph - N/A   Clear
6:55 PM 64.4 °F - 42.8 °F 45% 30.09 in 10.0 mi NNW 5.8 mph - N/A   Clear
7:15 PM 62.6 °F - 44.6 °F 52% 30.09 in 10.0 mi NNW 4.6 mph - N/A   Clear
7:35 PM 62.6 °F - 44.6 °F 52% 30.09 in 10.0 mi North 3.5 mph - N/A   Clear
7:55 PM 62.6 °F - 44.6 °F 52% 30.09 in 10.0 mi Calm Calm - N/A   Clear
8:15 PM 60.8 °F - 44.6 °F 55% 30.09 in 10.0 mi NW 5.8 mph - N/A   Clear
8:35 PM 57.2 °F - 44.6 °F 63% 30.10 in 10.0 mi Calm Calm - N/A   Clear
8:55 PM 57.2 °F - 42.8 °F 59% 30.10 in 10.0 mi NW 3.5 mph - N/A   Clear
9:15 PM 55.4 °F - 44.6 °F 67% 30.10 in 10.0 mi Calm Calm - N/A   Clear
9:35 PM 51.8 °F - 44.6 °F 76% 30.10 in 10.0 mi Calm Calm - N/A   Clear
9:55 PM 51.8 °F - 44.6 °F 76% 30.10 in 10.0 mi Calm Calm - N/A   Clear
10:15 PM 50.0 °F - 44.6 °F 82% 30.11 in 10.0 mi Calm Calm - N/A   Clear
10:55 PM 48.2 °F - 42.8 °F 82% 30.11 in 10.0 mi Calm Calm - N/A   Clear
11:15 PM 48.2 °F - 44.6 °F 87% 30.11 in 10.0 mi Calm Calm - N/A   Clear
11:35 PM 46.4 °F 45.2 °F 41.0 °F 81% 30.11 in 10.0 mi SW 3.5 mph - N/A   Clear
11:55 PM 46.4 °F - 42.8 °F 87% 30.11 in 10.0 mi Calm Calm - N/A   Clear